Regional Weather Roundup
Issued by NWS Newport/Morehead, NC

Home | Current Version | Previous Version | Text Only | Print | Product List | Glossary On
Versions: 1 2 3 4 5 6 7 8 9 10 11 12 13 14 15 16 17 18 19 20 21 22 23 24 25 26 27 28 29 30 31 32 33 34 35 36 37 38 39 40 41 42 43 44 45 46 47 48 49 50
000
ASUS42 KMHX 290625
RWRMHX
WEATHER ROUNDUP FOR EASTERN NORTH CAROLINA
NATIONAL WEATHER SERVICE NEWPORT/MOREHEAD CITY NC
200 AM EDT THU JUN 29 2017

NOTE: "FAIR" INDICATES FEW OR NO CLOUDS BELOW 12,000 FEET
WITH NO SIGNIFICANT WEATHER AND/OR OBSTRUCTIONS TO VISIBILITY

NCZ015>017-031-032-045>047-102-103-290700-
NORTH COAST

CITY           SKY/WX    TMP DP  RH WIND       PRES   REMARKS
EDENTON        CLEAR     72  64  76 CALM      30.20F
ELIZABETH CITY CLEAR     63  62  97 S3        30.20F
KITTY HAWK     CLEAR     68  62  81 CALM      30.19F
MANTEO         CLEAR     64  62  92 CALM      30.21S

$$

NCZ045>047-081-094-103-104-290700-
CENTRAL COAST

CITY           SKY/WX    TMP DP  RH WIND       PRES   REMARKS
FRISCO         NOT AVBL

$$

NCZ095-097-098-100-101-290700-
SOUTHERN COAST

CITY           SKY/WX    TMP DP  RH WIND       PRES   REMARKS
BEAUFORT       CLEAR     69  63  81 CALM      30.19F
CEDAR ISLAND   NOT AVBL
JACKSONVILLE   CLEAR     64  62  93 CALM      30.18F
PINEY ISLAND   PTCLDY   N/A N/A N/A CALM      30.19F
WILMINGTON     CLEAR     64  61  90 NE3       30.18F


$$

NCZ011>013-027>030-043-044-078>080-089-090>093-098-290700-
COASTAL PLAIN

CITY           SKY/WX    TMP DP  RH WIND       PRES   REMARKS
AHOSKIE          N/A     61  61  97 S3        30.19F
CLINTON        PTCLDY    64  61  92 CALM      30.20S
ELIZABETHTOWN  NOT AVBL
GOLDSBORO      PTCLDY    65  64  93 CALM      30.18F
GREENVILLE     CLEAR     64  63  94 CALM      30.20F
HAVELOCK       PTCLDY    66  58  75 CALM      30.20F
KENANSVILLE    PTCLDY    61  59  94 CALM      30.20S
KINSTON        PTCLDY    63  61  93 CALM      30.20F
NEW BERN       CLEAR     63  61  93 CALM      30.21F
RICHLANDS      CLEAR     61  60  97 CALM      30.20F
ROCKY MOUNT    PTCLDY    63  61  93 CALM      30.19F
WASHINGTON       N/A    N/A N/A N/A CALM      30.20F
WHITEVILLE     CLEAR     62  60  92 CALM      30.19S

$$

AMZ130-135-150-152-154-156-158-170-250-252-270-ANZ085-086-088-633-658-670-290700-
MARINE OBSERVATIONS

STATION/POSITION TIME  TEMP    WIND        PRES    WAVE   SWELL
                       AIR SEA DIR/SP/G            HT/PER HT/PER
                 (UTC) (F)     (DEG/KT/KT) (MB)    (FT/S) (FT/S)
CHESAPEAKE LIGHT NOT AVBL
64 E VA BEACH    0550   72 73  160/  8/  8 1023.1    2/ 5   2/ 5
DUCK             0600   72 73  140/  8/  9 1022.1
2 E DUCK         NOT AVBL
OREGON INLET     0600   71 78  120/  3/  4 1022.5
13E OREGON INLT  0548      76                N/A     2/ 6   2/ 6
HATTERAS CG      0600   73 79   90/  4/  5 1022.2
DIAMOND BUOY     0550   79 83  190/  4/  6 1022.4    2/ 7   2/ 7
CAPE LOOKOUT     0600   77      10/  5/  5 1021.9
BEAUFORT LAB     0600   72 78   40/  5/  5 1021.5
30 SE NEW RVR IN 0608   78 80   50/  6/  8 1021.8
30 SE NEW RVR IN 0613      80                N/A     2/ 7
27 SE WRIGHTSVLE 0608   79 80   80/  6/  8 1021.5
5 SE WRIGHTSVLE  0608   78 79  130/  2/  6 1021.5
225 S CAPE HAT   0550   79 80   80/ 12/ 14 1020.3    3/ 5   2/ 7
41 SE CHARLESTON 0610   80 81  100/ 12/ 16 1020.4

$$




USA.gov is the U.S. government's official web portal to all federal, state and local government web resources and services.